This is the latest recevied weather packets stored in our database for station/object N5KJT. If no packets are shown the sender has not sent any weather packets the latest 10 day(s).
| Time | Temp. | Humidity | Pressure | Rain* | Wind** | Luminosity | Snow |
|---|---|---|---|---|---|---|---|
| 1787641515 | 19.44° C | 50% | 1026.1 hPa | 0 mm | - | 0 W/m² | - |
| 1787641216 | 18.89° C | 52% | 1026.2 hPa | 0 mm | - | 0 W/m² | - |
| 1787640915 | 18.89° C | 54% | 1026 hPa | 0 mm | - | 0 W/m² | - |
| 1787640615 | 18.33° C | 54% | 1025.9 hPa | 0 mm | - | 0 W/m² | - |
| 1787640316 | 18.33° C | 57% | 1025.9 hPa | 0 mm | - | 0 W/m² | - |
| 1787640015 | 17.78° C | 62% | 1025.9 hPa | 0 mm | - | 0 W/m² | - |
| 1787639716 | 18.33° C | 62% | 1026 hPa | 0 mm | - | 0 W/m² | - |
| 1787639416 | 18.33° C | 61% | 1026 hPa | 0 mm | - | 0 W/m² | - |
| 1787639115 | 18.33° C | 61% | 1026.1 hPa | 0 mm | - | 0 W/m² | - |
| 1787638815 | 18.33° C | 60% | 1026 hPa | 0 mm | - | 0 W/m² | - |
| 1787638515 | 18.33° C | 61% | 1026 hPa | 0 mm | - | 0 W/m² | - |
| 1787638215 | 17.78° C | 59% | 1026.1 hPa | 0 mm | - | 0 W/m² | - |
| 1787637915 | 17.78° C | 61% | 1026.2 hPa | 0 mm | - | 0 W/m² | - |
| 1787637617 | 18.33° C | 62% | 1026.2 hPa | 0 mm | - | 0 W/m² | - |
| 1787637316 | 18.33° C | 61% | 1026.2 hPa | 0 mm | - | 0 W/m² | - |
| 1787637017 | 18.89° C | 58% | 1026.3 hPa | 0 mm | - | 0 W/m² | - |
| 1787636717 | 18.89° C | 56% | 1026.3 hPa | 0 mm | - | 0 W/m² | - |
| 1787636417 | 18.89° C | 56% | 1026.3 hPa | 0 mm | - | 0 W/m² | - |
| 1787636117 | 18.33° C | 57% | 1026.3 hPa | 0 mm | - | 0 W/m² | - |
| 1787635817 | 18.33° C | 59% | 1026.3 hPa | 0 mm | - | 0 W/m² | - |
| 1787635517 | 18.89° C | 60% | 1026.3 hPa | 0 mm | - | 0 W/m² | - |
| 1787635217 | 18.89° C | 58% | 1026.4 hPa | 0 mm | - | 0 W/m² | - |
| 1787634917 | 18.89° C | 60% | 1026.4 hPa | 0 mm | - | 0 W/m² | - |
| 1787634617 | 18.89° C | 59% | 1026.4 hPa | 0 mm | - | 0 W/m² | - |
| 1787634318 | 18.89° C | 57% | 1026.5 hPa | 0 mm | - | 0 W/m² | - |
* Rain latest hour (hover to see other rain measurements)
** Current wind speed in m/s (hover to see current wind gust speed)